Tracking 18850 objects as of 22-Nov-2017
HD Live streaming from Space Station
objects crossing your sky now

COSMOS 1666

Track COSMOS 1666 now!
10-day predictions
COSMOS 1666 is classified as:


NORAD ID: 15889
Int'l Code: 1985-058A
Perigee: 508.4 km
Apogee: 530.5 km
Inclination: 82.5 °
Period: 94.9 minutes
Semi major axis: 6890 km
RCS: 8.3822 m2 (large)
Launch date: July 8, 1985
Source: Commonwealth of Independent States (former USSR) (CIS)
Launch site: PLESETSK MISSILE AND SPACE COMPLEX (PKMTR)
aabbcc
Your satellite tracking list
Your tracking list is empty




NASA's NSSDC Master Catalog

Two Line Element Set (TLE):
1 15889U 85058A   17325.75488229 +.00001146 +00000-0 +54839-4 0  9995
2 15889 082.4894 199.1765 0016057 230.4026 194.2661 15.17860511765778
Source of the keplerian elements: AFSPC